This is the latest recevied weather packets stored in our database for station/object SQ9IWE-13. If no packets are shown the sender has not sent any weather packets the latest 10 day(s).
| Time | Temp. | Humidity | Pressure | Rain* | Wind** | Luminosity | Snow |
|---|---|---|---|---|---|---|---|
| 1777286401 | 19.44° C | 28% | 1022.1 hPa | - | - | - | - |
| 1777285801 | 18.89° C | 29% | 1022.1 hPa | - | - | - | - |
| 1777285201 | 18.33° C | 29% | 1022.3 hPa | - | - | - | - |
| 1777284601 | 17.78° C | 30% | 1022.4 hPa | - | - | - | - |
| 1777284001 | 17.22° C | 32% | 1022.4 hPa | - | - | - | - |
| 1777283401 | 18.33° C | 29% | 1022.7 hPa | - | - | - | - |
| 1777282801 | 17.22° C | 30% | 1022.7 hPa | - | - | - | - |
| 1777282201 | 17.78° C | 31% | 1022.8 hPa | - | - | - | - |
| 1777281601 | -12.78° C | - | - | - | - | - | - |
| 1777281001 | 18.33° C | 30% | 1022.8 hPa | - | - | - | - |
| 1777279800 | 15.56° C | 32% | 1023 hPa | - | - | - | - |
| 1777279201 | 15.56° C | 32% | 1023 hPa | - | - | - | - |
| 1777278600 | 16.11° C | 33% | 1023 hPa | - | - | - | - |
| 1777278000 | 15° C | 32% | 1023 hPa | - | - | - | - |
| 1777277400 | 15.56° C | 31% | 1023.1 hPa | - | - | - | - |
| 1777276201 | 16.11° C | 32% | 1023.1 hPa | - | - | - | - |
| 1777275601 | 15.56° C | 34% | 1023.1 hPa | - | - | - | - |
| 1777275001 | 14.44° C | 35% | 1023.2 hPa | - | - | - | - |
| 1777274401 | 13.89° C | 39% | 1023.2 hPa | - | - | - | - |
| 1777273801 | 13.33° C | 39% | 1023.4 hPa | - | - | - | - |
| 1777273201 | 13.33° C | 39% | 1023.3 hPa | - | - | - | - |
| 1777272601 | 13.89° C | 38% | 1023.2 hPa | - | - | - | - |
| 1777272001 | 13.33° C | 41% | 1023.2 hPa | - | - | - | - |
| 1777271401 | 12.78° C | 40% | 1023.3 hPa | - | - | - | - |
| 1777270801 | 12.22° C | 43% | 1023.2 hPa | - | - | - | - |
* Rain since midnight (hover to see other rain measurements)
** Current wind speed in m/s (hover to see current wind gust speed)